Flag for China Weather past 2 weeks in Shanghai, Shanghai Municipality, China

Now
72 °F

Partly sunny.


Feels Like: 74 °F
Forecast: 64 / 78 °F
Wind: 20 mph from North

Location: Shanghai Hongqiao Airport

Current Time: Sep 30, 2014 at 2:56:25 PM

Latest Report: Sep 30, 2014 at 2:30 PM


Visibility: N/A

Pressure: 30.04 "Hg

Humidity: 73%

Dew point: 63 °F

Location of ShanghaiLocation

Historic Weather in Shanghai — Graph

°F

Shanghai temperature yesterday

Maximum temperature yesterday: 90 °F (at 12:00 PM)
Minimum temperature yesterday: 73 °F (at 8:00 PM)
Average temperature yesterday: 79 °F

Past Weeks' High & Low Weather Summary

 TemperatureHumidityPressure
High90 °F (Sep 29, 12:00 PM)100% (Sep 20, 5:30 AM)30.09 "Hg (Sep 20, 5:30 AM)
Low64 °F (Sep 19, 8:30 AM)45% (Sep 21, 2:30 PM)29.56 "Hg (Sep 23, 12:00 PM)
Average75 °F79%29.91 "Hg
* Reported Sep 15 1:00 PM — Sep 30 1:30 PM, Shanghai, Weather by CustomWeather, © 2014

Note: Actual official high and low records may vary slightly from our data, if they occured in-between our weather recording intervals... More about our weather records

Advertising

Shanghai weather history for previous 24 hours

 ConditionsComfort  
Time TempWeatherWind HumidityBarometerVisibility
1:30 PM
Sep 30
70 °FPartly sunny.17 mph78%30.07 "HgN/A
1:00 PM72 °FPartly sunny.17 mph78%30.07 "HgN/A
12:30 PM72 °FPartly sunny.15 mph78%30.07 "HgN/A
12:00 PM70 °FPartly sunny.17 mph83%30.07 "HgN/A
11:30 AM70 °FPartly sunny.10 mph88%30.09 "Hg5 mi
11:00 AM70 °FPartly sunny.15 mph88%30.09 "Hg4 mi
10:30 AM70 °FPartly sunny.15 mph88%30.09 "Hg5 mi
10:00 AM70 °FPartly sunny.15 mph88%30.07 "Hg5 mi
9:30 AM70 °FLight rain. Partly sunny.15 mph94%30.07 "Hg4 mi
9:00 AM68 °FLight rain. Fog.20 mph94%30.07 "Hg2 mi
8:30 AM68 °FLight rain. Fog.17 mph94%30.07 "Hg2 mi
8:00 AM70 °FLight rain. Partly sunny.20 mph94%30.04 "Hg5 mi
7:30 AM70 °FLight rain. Partly sunny.13 mph94%30.04 "Hg5 mi
7:00 AM70 °FLight rain. Fog.13 mph94%30.01 "Hg2 mi
6:30 AM70 °FLight rain. Partly sunny.15 mph94%30.01 "Hg5 mi
6:00 AM70 °FLight rain. Partly sunny.15 mph94%30.01 "Hg5 mi
5:30 AM70 °FLight rain. Passing clouds.15 mph94%29.98 "HgN/A
5:00 AM72 °FLight rain. Passing clouds.17 mph88%29.98 "HgN/A
4:30 AM72 °FLight rain. Passing clouds.13 mph94%29.98 "HgN/A
4:00 AM72 °FPassing clouds.13 mph94%29.95 "HgN/A
3:30 AM72 °FPassing clouds.13 mph94%29.95 "HgN/A
3:00 AM72 °FPassing clouds.13 mph88%29.95 "HgN/A
2:30 AM72 °FPassing clouds.10 mph94%29.95 "HgN/A
2:00 AM72 °FLight rain. Passing clouds.13 mph94%29.95 "HgN/A
1:30 AM72 °FLight rain. Passing clouds.10 mph94%29.95 "HgN/A
1:00 AM73 °FPassing clouds.13 mph89%29.95 "HgN/A
12:30 AM73 °FPassing clouds.13 mph89%29.95 "HgN/A
12:00 AM73 °FPassing clouds.13 mph89%29.95 "HgN/A
11:30 PM
Sep 29
73 °FPassing clouds.13 mph89%29.95 "HgN/A
11:00 PM73 °FPassing clouds.10 mph89%29.95 "HgN/A
10:30 PM73 °FPassing clouds.13 mph89%29.95 "HgN/A
10:00 PM73 °FPassing clouds.10 mph89%29.95 "HgN/A
9:30 PM73 °FPassing clouds.10 mph89%29.95 "HgN/A
9:00 PM73 °FMostly cloudy.10 mph89%29.92 "HgN/A
8:30 PM73 °FPassing clouds.10 mph89%29.92 "HgN/A
8:00 PM73 °FLight rain. Passing clouds.15 mph94%29.92 "Hg4 mi
7:30 PM77 °FPassing clouds.10 mph79%29.89 "Hg4 mi
7:00 PM77 °FPassing clouds.15 mph79%29.86 "Hg4 mi
6:30 PM77 °FPassing clouds.15 mph79%29.86 "Hg4 mi
6:00 PM77 °FPassing clouds.15 mph83%29.86 "Hg4 mi
5:30 PM79 °FPartly sunny.17 mph79%29.83 "Hg4 mi
5:00 PM79 °FPartly sunny.17 mph79%29.83 "Hg4 mi
4:30 PM81 °FPartly sunny.15 mph74%29.83 "Hg4 mi
4:00 PM82 °FFog.10 mph74%29.80 "Hg3 mi
3:30 PM81 °FFog.10 mph79%29.80 "Hg2 mi
3:00 PM81 °FFog.17 mph84%29.80 "Hg2 mi
2:30 PM84 °FPartly sunny.15 mph74%29.80 "Hg2 mi
2:00 PM86 °FPartly sunny.13 mph70%29.77 "Hg3 mi
Weather by CustomWeather, © 2014

See weather overviewHow to use our weather pages